Wind_Speed
77 76 77 77 78 79 80 80 81 81 81 82 82 83 84 84 85 85 86 87 87 87 87 86 86 86 87 87 88 88 88 88 88 89 90 91 91 91 91 90 89 89 89 90 91 92 91 89 87 86 86 85 84 85 85 86 88 89 91 92 94 95 96 96 95 95 95 96 96 96 97 98 99 100 100 101 102 103 103 104 104 105 105 106 107
79 79 79 80 81 82 82 83 83 83 83 84 85 86 86 86 87 87 89 90 90 90 89 89 89 89 90 91 91 91 91 92 92 92 93 93 94 94 94 94 93 93 93 93 94 93 91 90 88 87 86 86 86 86 86 87 88 90 92 93 94 96 97 97 96 96 95 96 96 96 97 98 99 100 100 101 102 103 104 104 105 106 106 107 109
82 83 84 84 84 84 84 85 85 85 86 87 87 88 88 88 89 90 91 92 92 92 92 92 92 92 93 93 94 94 95 95 95 95 96 96 96 96 96 96 96 96 96 96 95 94 92 91 89 88 87 87 86 87 87 88 89 91 92 94 95 96 96 96 96 96 95 96 97 97 98 99 99 100 101 102 103 104 105 106 106 107 108 109 111
87 87 87 86 86 86 87 88 88 88 89 89 89 90 90 91 92 93 94 95 95 95 95 95 95 95 96 96 97 97 98 98 98 98 98 98 98 98 98 98 98 98 98 97 96 95 93 92 90 89 89 88 88 88 88 89 90 91 93 94 95 96 96 96 95 96 96 97 97 98 98 99 100 101 102 103 104 106 106 107 108 109 110 112 113
89 89 88 88 89 89 90 90 91 91 92 92 92 92 93 93 95 96 97 98 98 98 97 97 97 98 98 99 100 100 100 100 101 101 101 100 99 99 99 99 99 99 98 98 96 95 93 92 91 90 89 89 89 89 90 90 91 92 94 95 95 95 95 95 96 96 97 97 98 98 99 100 102 103 105 106 107 108 108 109 110 111 113 114 116
89 90 90 90 91 92 92 93 93 94 94 95 95 95 95 95 97 98 99 100 100 100 100 100 100 100 101 102 103 103 103 103 103 103 102 102 101 101 101 100 100 100 99 98 97 95 93 92 91 90 90 89 89 89 90 91 91 92 93 94 95 95 95 95 96 96 97 97 99 100 101 102 104 106 107 108 109 109 110 111 113 114 114 116 117
91 91 92 92 93 93 94 95 95 96 96 97 97 97 97 97 98 100 101 102 102 103 103 103 103 103 104 105 105 105 105 105 104 104 104 104 103 102 101 101 101 101 100 98 97 95 93 92 90 90 89 89 89 89 90 90 91 91 92 93 93 93 93 94 95 96 98 99 101 102 104 106 107 108 109 110 110 111 112 112 113 114 115 117 118
92 92 93 93 94 95 96 96 97 97 98 99 99 99 99 99 100 101 103 104 105 106 106 106 106 106 106 107 107 107 106 106 106 106 105 104 103 103 102 102 102 101 100 98 96 94 93 91 90 89 88 88 87 87 88 88 88 89 89 90 91 92 93 95 97 98 100 102 104 105 107 108 109 110 111 111 111 112 112 113 114 115 117 118 119
93 93 94 95 96 97 97 98 98 99 100 101 102 102 103 103 103 104 106 107 108 108 109 108 108 108 108 107 107 107 107 107 107 107 106 105 104 103 103 102 102 100 98 96 95 93 92 90 89 87 86 86 85 85 86 86 86 87 88 90 92 93 95 98 100 101 103 105 106 107 108 109 110 111 111 111 112 112 113 114 116 117 118 119 120
95 95 96 97 98 99 100 101 101 102 103 105 106 106 107 107 107 107 108 109 109 109 109 109 109 108 108 107 107 107 107 108 108 107 106 105 105 104 103 101 100 97 95 94 93 92 91 89 88 87 86 85 85 86 87 87 88 90 91 93 95 97 99 101 103 104 105 106 107 108 109 109 110 111 112 112 113 114 114 115 116 117 119 120 122
98 99 100 101 102 103 104 105 106 107 108 109 109 110 110 109 109 109 109 109 110 109 109 109 108 108 108 107 107 107 107 107 108 107 106 106 105 103 101 99 96 94 93 93 92 91 90 89 88 88 87 88 88 89 90 91 92 94 95 96 98 100 101 103 104 105 106 106 107 108 109 111 112 112 112 113 113 114 115 116 117 119 120 122 122
103 104 105 106 107 108 109 109 110 110 111 111 111 111 111 111 110 110 110 110 110 110 109 109 109 108 108 108 107 107 107 107 107 107 106 105 103 100 98 95 94 93 92 92 91 91 90 90 90 90 91 91 92 93 93 94 95 96 97 98 99 101 102 103 104 106 107 108 109 110 111 112 112 112 112 113 114 116 117 118 119 120 121 122 123
107 108 109 110 110 111 111 111 112 112 113 113 112 112 112 112 112 112 112 112 112 111 111 111 110 110 109 108 107 106 106 106 106 105 103 101 99 97 95 93 92 92 91 91 91 92 92 93 93 94 95 95 95 96 96 96 97 98 99 100 101 102 103 104 106 107 109 110 111 112 113 113 113 113 114 116 117 119 119 120 120 120 121 122 123
111 111 112 112 113 113 113 113 113 113 114 114 114 114 114 114 114 114 114 113 113 113 113 112 111 111 109 108 106 104 103 102 102 100 98 96 95 93 92 91 91 92 92 92 94 95 96 97 97 98 99 99 100 100 100 100 100 101 102 103 104 105 106 107 109 110 111 111 112 113 115 115 116 117 118 119 119 120 120 119 120 120 121 122 123
114 114 114 114 114 115 115 114 115 115 115 115 115 115 115 115 115 114 114 114 113 113 113 112 110 109 107 105 102 100 98 97 96 95 95 94 93 92 92 92 93 94 95 96 97 99 99 100 101 102 103 104 104 104 104 104 104 105 106 108 109 109 110 111 112 113 113 114 115 116 117 118 119 119 119 120 120 119 119 119 119 120 121 122 122
116 115 115 116 116 116 116 116 116 116 116 116 116 116 115 115 114 114 113 112 112 111 110 108 106 104 103 101 99 97 96 95 95 95 95 95 95 95 95 96 96 97 98 99 100 101 102 103 104 105 106 107 107 107 107 107 108 109 110 112 112 113 114 115 116 116 116 116 117 117 118 119 119 119 119 119 119 118 118 119 120 121 121 120 120
117 116 116 117 117 117 117 117 116 116 116 116 115 115 114 113 112 112 110 109 107 106 105 104 102 101 100 99 98 96 96 96 97 97 98 98 98 98 98 98 99 99 100 101 103 104 105 106 108 109 109 110 110 111 111 111 111 112 114 114 115 116 116 117 118 118 117 117 118 118 119 119 119 118 118 118 117 117 118 119 119 119 119 119 119
118 117 117 117 117 117 117 116 115 115 114 113 113 112 111 110 109 108 106 105 104 102 102 101 100 100 99 99 98 98 98 99 99 100 100 101 100 100 100 101 102 103 104 105 106 108 109 110 111 112 113 114 114 115 114 114 114 115 116 117 117 117 118 118 118 118 118 118 118 118 118 118 117 117 116 116 117 117 117 118 118 117 117 118 118
117 117 116 116 115 115 114 113 112 111 110 109 108 107 106 106 105 104 103 102 102 101 101 100 100 100 100 101 101 101 101 102 102 102 103 103 103 103 104 105 106 107 108 109 111 112 113 114 115 116 117 117 118 118 117 117 117 118 117 118 118 118 119 118 118 118 118 118 117 117 116 116 116 115 115 115 115 115 115 115 116 116 117 117 118
113 112 111 110 109 109 108 107 106 105 104 103 102 101 101 101 101 101 101 101 101 101 101 102 102 103 103 103 104 104 104 105 105 106 106 107 107 107 108 109 110 111 113 114 115 116 117 118 119 119 120 120 120 119 119 119 119 119 118 118 118 118 118 118 117 117 116 116 116 115 114 114 113 113 113 113 113 113 114 114 115 116 116 117 118
106 105 104 103 103 103 103 102 101 100 100 99 98 98 99 99 99 100 101 101 102 103 104 104 105 105 106 106 107 107 108 109 110 110 111 111 112 112 113 113 114 115 116 117 118 118 119 120 121 121 121 122 121 120 119 119 119 118 118 117 117 117 116 116 115 115 114 114 113 113 112 111 111 110 110 111 111 112 113 114 114 115 116 117 118
101 100 100 101 101 101 101 101 101 101 100 100 99 99 100 101 101 102 103 104 105 106 107 108 109 109 110 110 111 111 112 113 114 115 115 115 116 116 116 117 118 118 119 119 119 120 120 121 121 121 121 121 120 119 118 117 117 116 115 115 114 114 113 113 112 112 112 111 111 110 109 109 109 109 109 109 110 111 112 113 114 115 116 118 119
101 101 101 101 101 102 102 102 103 103 103 103 103 103 104 105 105 106 107 108 109 110 111 112 112 113 113 114 114 115 116 116 117 117 118 118 119 119 119 119 120 120 120 120 120 120 120 120 120 119 119 118 117 117 116 114 113 113 112 111 111 110 110 109 109 109 109 109 108 108 108 108 108 108 108 109 110 111 112 113 114 115 116 117 118
104 104 104 104 104 104 104 104 105 105 105 106 106 106 107 107 108 109 110 111 112 113 114 114 115 116 116 116 117 118 118 118 119 119 120 120 120 121 120 120 120 120 119 118 118 118 118 118 117 116 116 115 114 112 112 111 110 109 108 108 108 107 107 106 107 107 107 107 107 107 107 107 107 107 107 108 109 110 111 113 114 115 116 116 117
107 107 107 107 107 107 107 107 107 108 108 108 108 109 109 110 110 111 112 113 114 115 116 117 117 118 118 118 119 119 119 120 120 121 121 121 120 120 119 118 117 116 115 114 115 115 115 115 114 113 113 112 110 109 109 108 108 107 107 106 105 105 105 105 105 106 106 106 107 107 107 107 106 106 106 107 108 110 111 112 113 114 115 115 116
108 108 108 108 108 108 108 108 109 109 110 110 110 111 111 112 112 113 114 115 116 117 118 119 119 120 120 120 120 120 120 120 120 120 120 120 118 117 115 114 112 111 111 111 112 113 113 112 112 111 111 110 109 108 107 107 106 106 106 105 104 103 104 104 104 105 105 105 105 106 106 106 105 105 106 107 108 109 110 111 112 112 113 114 114
106 106 107 107 108 108 108 108 109 110 110 111 111 112 113 114 115 116 117 118 119 119 120 120 121 121 121 121 120 120 119 119 119 118 118 117 115 113 112 110 108 108 108 109 111 111 111 110 110 110 111 111 110 109 108 107 106 106 105 103 103 103 104 103 103 103 103 104 104 105 105 105 105 106 106 107 107 108 109 110 110 111 112 112 112
107 107 107 108 109 110 111 111 111 112 113 115 116 116 117 118 119 120 120 121 121 121 121 121 121 121 121 120 119 118 118 117 116 116 115 114 112 111 110 108 106 106 106 108 111 111 110 109 109 109 110 111 112 112 111 110 109 107 106 105 105 105 104 104 104 103 103 103 104 104 104 104 105 105 105 106 106 107 108 108 109 110 110 110 109
110 111 112 112 113 114 116 117 117 118 119 120 121 121 122 122 122 122 122 122 121 121 121 120 120 119 119 117 116 116 116 115 114 113 112 112 111 110 109 107 105 105 105 107 109 110 109 108 108 107 108 108 110 111 112 112 110 108 107 107 107 106 105 104 104 103 103 102 102 102 103 103 103 103 104 104 105 106 106 107 107 107 107 108 108
115 117 118 120 121 121 122 123 123 123 123 123 123 123 122 122 121 120 120 119 119 118 118 117 116 116 115 114 114 113 114 114 113 112 111 110 110 109 108 106 105 105 105 106 108 108 108 107 107 107 107 108 109 110 111 110 109 108 108 108 107 106 105 104 102 102 101 101 100 100 100 101 101 102 102 103 104 105 105 105 106 106 107 107 108
121 122 124 125 125 125 125 124 124 123 123 122 121 120 119 118 117 117 116 116 115 115 114 114 114 113 113 112 111 111 112 112 112 111 110 109 108 107 107 106 105 104 104 106 107 107 107 107 107 107 107 108 108 109 109 108 108 107 107 107 106 105 104 103 101 100 99 98 98 98 98 99 100 101 102 102 103 104 105 105 106 106 107 107 107
125 124 124 125 125 124 123 122 121 121 120 119 118 117 115 114 113 113 113 112 112 112 112 112 112 112 111 111 110 110 110 111 111 110 110 109 108 107 106 105 105 104 105 106 107 106 106 106 107 107 108 108 108 107 107 106 106 105 105 104 104 103 102 101 100 99 98 97 97 97 97 98 99 100 102 103 103 104 105 105 106 106 107 107 107
126 124 123 122 121 121 120 119 118 117 116 115 115 114 113 112 111 111 111 110 110 110 110 110 110 110 110 109 109 109 109 109 109 109 109 109 108 106 104 103 103 103 104 105 106 105 105 105 105 106 107 107 106 106 105 104 103 102 101 101 101 101 100 99 98 98 97 97 97 97 98 99 100 101 102 103 103 104 105 105 106 106 106 106 107
124 122 120 119 118 117 116 116 115 114 113 113 112 112 111 110 109 109 109 108 108 107 107 107 107 106 106 106 106 106 106 106 106 107 107 107 105 103 101 100 100 100 101 103 104 104 103 103 103 104 104 104 104 103 102 101 100 99 98 98 98 98 98 97 97 96 96 97 97 98 99 100 101 101 102 102 103 103 104 104 105 105 105 106 107
121 119 118 117 116 115 115 114 114 113 112 112 111 110 109 108 107 106 106 105 104 103 102 101 101 101 101 101 102 102 101 101 101 103 103 103 100 98 97 97 97 98 98 100 101 101 100 100 100 100 101 101 100 100 99 97 96 95 95 95 96 96 96 96 96 96 97 97 98 99 100 100 101 101 101 102 102 102 103 103 104 104 105 106 107
120 118 117 117 116 115 114 113 112 111 110 109 108 107 106 105 104 103 103 102 101 99 97 97 96 96 96 97 98 98 97 97 98 99 99 98 96 94 94 94 95 95 95 96 97 98 98 97 97 97 97 97 97 97 96 95 94 94 94 94 95 95 96 96 97 97 98 98 99 99 100 100 101 101 101 101 101 101 102 103 104 104 105 105 107
118 117 116 115 113 112 110 109 108 107 106 104 103 103 102 101 100 100 100 100 99 97 95 94 93 93 93 94 94 95 95 95 95 95 94 93 93 93 92 92 93 93 93 94 94 94 95 95 94 94 94 94 94 94 94 94 94 94 93 94 94 95 96 96 97 98 98 99 99 100 100 100 100 101 101 101 101 101 102 103 103 103 104 105 107
115 113 112 111 109 108 106 105 104 103 102 101 100 99 98 98 98 97 97 98 97 95 93 91 91 91 91 91 92 92 92 92 92 92 92 91 91 92 92 92 92 92 92 91 91 92 92 92 92 92 92 92 93 93 94 94 94 93 93 93 94 95 95 96 97 98 99 99 99 100 100 100 100 100 100 100 100 101 101 102 102 103 104 106 107
111 110 108 107 106 105 103 102 101 100 99 98 97 97 96 96 96 96 96 96 95 94 92 90 88 89 89 89 89 90 91 91 91 91 91 90 90 91 91 91 91 91 90 90 90 90 90 91 91 91 91 92 92 93 94 94 93 93 93 94 94 95 95 96 97 97 98 98 99 99 100 100 100 100 100 100 100 100 101 101 102 103 105 106 106
107 106 105 104 104 102 101 100 99 98 97 96 95 95 95 94 94 94 94 94 93 92 91 88 87 87 87 87 87 88 89 91 92 92 91 90 90 90 90 90 90 90 90 90 90 90 90 90 91 91 91 92 92 93 93 93 93 93 94 94 95 95 95 96 96 97 97 98 98 98 99 99 99 99 100 100 99 100 100 101 103 104 105 105 105
104 103 102 102 102 101 100 99 98 97 96 95 94 94 94 93 93 93 93 93 92 92 90 88 87 86 86 86 86 87 88 90 92 92 91 90 89 89 89 89 89 89 90 90 90 90 90 90 91 92 92 92 93 93 93 93 93 94 94 94 95 95 95 96 96 96 96 97 97 98 98 98 99 99 100 100 100 100 101 102 103 104 104 104 104
102 101 101 100 100 100 99 98 98 97 95 94 94 93 93 93 93 92 92 91 91 91 90 89 87 86 86 86 86 87 88 89 89 90 89 89 89 89 89 88 88 88 88 88 89 89 90 90 91 91 91 92 92 92 92 92 93 94 94 94 94 94 95 95 95 95 96 96 97 97 98 98 99 99 100 100 100 100 101 103 103 103 103 102 102
100 100 100 100 100 100 99 99 98 97 96 95 94 94 93 93 93 92 92 91 90 89 89 89 88 86 86 86 86 86 87 87 87 87 87 87 87 87 87 86 86 87 87 87 88 89 89 89 89 89 90 90 90 90 91 92 92 93 93 93 94 94 94 95 95 95 96 96 97 97 98 98 99 99 100 100 100 101 102 103 103 102 101 101 101
100 99 99 99 99 99 99 99 99 98 96 95 95 94 93 93 93 93 92 91 91 90 89 88 88 87 86 85 85 85 85 86 86 86 85 86 86 86 86 85 85 86 86 87 87 88 88 88 88 88 88 88 89 90 90 91 91 92 92 93 93 94 94 94 95 95 96 96 97 97 98 99 99 100 100 101 101 102 102 102 102 101 101 100 99
100 99 99 99 99 99 99 99 99 98 97 96 95 94 93 92 92 92 92 92 92 91 89 88 88 87 86 85 84 84 85 85 85 84 84 85 86 86 85 85 85 85 86 87 87 87 87 87 87 87 87 88 89 90 90 91 92 92 92 93 93 94 95 95 96 96 97 97 98 98 99 99 100 100 101 101 101 101 101 101 101 100 100 99 98
100 100 99 99 98 98 98 98 98 97 96 96 95 93 92 92 91 91 91 91 92 91 90 89 89 88 87 86 85 85 85 84 83 83 83 85 86 85 85 85 85 85 86 87 88 88 87 87 87 87 87 88 89 90 91 92 93 93 93 94 94 95 95 96 96 97 98 98 99 99 99 100 101 101 101 101 101 101 101 101 100 99 98 97 96
100 99 99 99 98 98 98 98 97 96 96 95 94 93 92 91 90 89 89 90 90 90 89 89 89 88 87 86 86 85 84 84 83 83 84 84 85 85 85 85 85 85 87 88 89 89 88 87 87 88 88 89 90 91 92 93 93 93 94 94 95 95 96 97 97 98 98 99 99 100 100 101 101 101 101 101 100 100 100 100 99 98 96 95 94
99 98 98 98 97 97 97 97 96 95 94 93 93 92 91 91 90 89 88 88 88 88 88 88 88 87 86 86 85 84 84 84 84 84 84 84 85 85 85 85 85 86 87 89 89 89 89 88 88 88 89 90 91 92 92 93 93 94 94 95 95 96 97 98 98 98 99 99 100 100 101 101 101 101 101 100 100 100 99 98 97 96 95 93 92
98 97 96 95 95 95 95 95 94 93 92 92 92 91 90 90 89 88 88 88 88 88 88 88 88 87 86 85 85 84 84 84 84 85 85 85 85 85 85 86 86 86 87 88 90 90 90 90 90 90 90 91 91 92 93 93 94 94 95 96 97 97 98 98 98 99 99 99 100 101 101 101 101 101 100 100 99 98 97 96 95 94 93 91 90
96 95 94 93 93 93 93 92 92 91 91 90 90 90 89 89 88 88 88 87 88 88 88 88 88 87 87 86 85 85 85 84 85 85 85 85 85 85 86 86 86 87 87 88 89 90 91 91 91 91 91 92 92 93 93 94 94 95 96 97 97 98 98 98 98 99 99 100 100 101 101 101 100 100 99 98 98 96 95 94 93 92 90 89 87
94 93 92 91 91 91 91 91 90 90 89 89 88 88 88 87 87 87 87 87 87 87 88 88 88 87 87 87 86 86 85 85 85 85 86 86 86 86 86 87 87 87 88 88 89 90 91 91 92 92 92 92 93 93 94 95 96 96 97 97 97 97 98 98 98 98 99 99 100 100 100 99 99 98 97 97 95 94 93 92 90 89 87 85 84
Wind_Direction
289 288 287 288 289 290 290 291 291 292 292 293 293 293 294 295 296 297 297 297 298 298 299 300 300 300 300 299 299 299 299 299 299 299 299 300 300 300 301 301 300 300 299 299 299 299 300 300 300 299 299 298 298 297 295 295 294 293 293 293 294 294 295 296 297 298 298 298 299 299 299 299 299 299 299 299 300 301 301 302 303 303 303 303 304
286 286 287 288 289 290 290 291 291 292 292 292 292 293 294 295 296 296 296 297 297 298 298 299 299 298 298 298 298 298 298 299 299 299 299 299 300 300 300 300 300 299 299 299 299 300 300 300 300 299 298 298 297 296 295 294 293 293 292 292 293 294 295 296 298 298 299 299 299 299 299 299 298 299 299 299 300 300 301 302 302 303 303 303 303
287 288 289 289 290 290 290 290 290 291 291 292 292 294 295 295 296 296 296 296 296 297 297 297 297 297 297 297 297 297 297 298 298 298 298 298 299 299 299 299 299 299 299 300 300 300 301 300 300 299 298 297 296 295 294 293 292 292 292 292 293 294 295 297 298 298 298 298 298 298 298 298 298 298 298 299 299 300 301 302 302 302 302 302 302
289 289 290 289 289 289 289 289 290 291 291 292 293 294 295 295 295 295 295 295 295 295 296 295 295 295 295 295 296 296 296 297 297 297 297 297 298 298 298 298 299 299 300 300 301 301 301 300 299 298 298 297 296 294 294 293 292 292 292 293 294 295 296 297 297 297 297 297 297 297 297 297 297 298 298 299 299 300 300 301 301 301 301 301 301
289 289 289 289 289 289 289 290 291 292 292 293 294 294 294 294 294 294 294 294 294 294 294 294 294 294 294 294 295 295 295 296 296 296 296 297 298 298 299 299 299 300 300 301 301 300 300 299 299 298 297 296 295 294 294 293 293 293 294 294 295 296 296 297 297 297 297 297 297 297 297 297 297 297 298 298 299 299 300 300 301 301 301 301 301
288 288 288 289 289 290 290 291 291 292 292 292 292 292 292 292 292 292 292 292 292 292 292 292 293 293 293 294 294 295 295 296 296 296 297 298 298 299 299 300 300 300 300 300 300 300 299 298 298 297 297 296 295 294 294 293 294 294 294 295 295 296 296 297 297 297 297 297 296 296 296 296 296 297 297 298 299 299 300 300 300 300 300 301 301
286 286 287 288 288 288 288 288 289 289 289 290 290 290 290 290 290 290 290 291 291 291 291 292 293 293 294 294 294 295 296 296 296 297 297 298 299 299 299 300 300 300 300 300 300 299 299 298 298 297 296 296 295 294 294 294 294 294 295 295 296 296 296 297 297 296 296 296 296 296 297 297 297 297 298 298 298 299 299 299 300 300 300 300 300
284 284 285 285 285 285 286 286 287 287 288 288 288 288 288 289 289 289 290 290 290 291 291 292 293 293 294 294 295 295 296 296 296 297 297 298 299 299 299 299 299 299 300 299 299 298 298 298 298 297 296 295 294 294 294 294 294 294 295 295 295 295 295 295 295 295 295 296 296 296 296 297 297 297 297 298 298 298 298 298 298 298 299 299 300
283 283 283 283 284 284 285 285 286 286 286 287 287 287 287 288 288 288 288 289 289 290 291 292 293 293 293 294 295 295 295 295 296 296 297 297 298 298 298 298 298 298 298 298 297 297 297 297 296 296 295 294 293 293 293 293 293 293 293 293 293 293 293 293 294 294 294 295 295 296 296 296 296 296 297 297 297 297 297 297 298 298 299 300 301
281 281 282 282 283 283 284 284 284 284 285 285 285 286 286 287 287 287 288 288 289 290 290 291 292 292 292 293 293 294 294 294 295 295 295 296 296 296 296 296 296 296 296 295 295 295 295 295 294 294 293 292 292 291 291 291 291 291 291 291 291 292 292 292 293 293 294 294 295 295 295 295 295 295 296 297 297 297 298 298 299 300 300 300 300
280 280 281 281 282 282 282 283 283 284 284 285 285 286 286 287 287 287 287 288 288 288 289 289 290 290 291 291 292 292 292 293 293 293 294 294 294 295 295 295 294 294 294 293 293 294 293 293 293 292 291 291 290 290 290 290 290 290 291 291 291 292 292 292 293 293 293 293 294 294 294 294 295 296 297 298 298 298 298 299 299 299 299 299 299
280 280 280 281 282 282 283 283 284 284 284 284 285 285 285 286 286 286 286 286 286 287 287 288 288 289 289 289 290 290 291 291 291 292 292 293 293 293 293 293 293 292 292 292 292 292 291 291 291 291 290 290 290 290 290 290 290 290 291 291 291 292 292 292 293 293 293 293 293 294 294 295 296 297 297 297 297 297 297 297 297 297 297 298 298
281 281 281 282 282 283 283 283 283 283 284 284 284 284 284 284 284 285 285 285 285 286 286 287 287 287 288 288 289 289 289 289 289 290 290 291 291 292 292 292 292 291 291 291 291 290 289 289 289 290 289 289 289 289 289 289 289 289 290 290 291 291 292 292 293 293 293 294 294 295 295 296 296 296 295 295 295 295 296 296 297 297 297 298 298
281 281 281 282 282 282 282 282 282 282 282 283 283 283 283 284 284 284 285 285 285 286 286 286 287 287 287 288 288 288 288 288 288 289 289 289 290 290 290 290 290 290 289 289 289 288 288 288 288 288 288 288 288 288 288 288 288 289 289 289 290 291 292 292 293 293 294 294 295 295 295 296 295 295 295 296 296 297 297 298 298 298 298 298 298
281 281 281 281 281 281 281 281 281 281 282 282 282 282 282 283 283 284 284 285 285 285 286 286 286 286 287 287 287 287 287 287 287 287 287 288 288 288 288 288 288 288 288 288 288 288 288 288 288 288 288 288 288 288 288 289 289 289 289 290 290 291 292 292 292 293 293 294 294 295 295 295 296 296 296 297 297 298 298 298 297 297 297 298 299
280 280 280 280 280 281 281 281 281 281 281 282 282 282 282 283 283 283 283 283 284 284 284 284 285 285 285 285 285 285 285 285 285 285 286 286 286 286 287 287 287 288 288 288 288 288 288 288 288 288 288 288 288 289 289 289 289 290 290 290 291 291 292 292 292 293 293 294 294 295 295 295 296 296 296 297 297 297 297 297 296 297 298 298 299
280 280 279 280 280 280 280 280 280 281 281 281 281 282 282 282 282 282 282 282 282 282 282 283 283 283 283 283 283 283 284 284 284 284 285 285 285 286 286 287 287 287 287 288 288 288 289 289 289 289 289 289 289 289 289 289 290 290 291 291 291 292 293 293 293 294 294 294 294 294 295 295 295 296 296 296 296 296 296 296 297 297 298 298 299
278 278 278 278 279 279 279 279 280 280 280 280 280 280 281 281 281 281 281 281 281 281 281 282 282 282 282 282 282 283 283 283 283 284 284 285 285 285 286 286 286 286 287 287 288 289 289 289 289 289 289 289 289 289 289 290 291 291 291 292 292 292 293 293 293 294 294 294 294 294 295 295 295 295 295 295 295 296 296 297 297 298 298 298 298
278 278 278 278 278 278 278 278 278 278 279 279 279 279 279 279 280 280 280 280 280 280 281 281 281 282 282 282 282 282 283 283 283 284 284 284 285 285 285 286 286 287 287 288 288 288 289 289 289 289 289 289 289 290 290 290 290 290 291 291 291 291 292 292 292 293 293 293 293 294 294 294 295 295 295 295 296 296 296 297 297 297 298 298 298
278 278 278 278 278 278 278 278 278 278 278 278 278 278 278 278 278 279 279 280 280 281 281 281 281 282 282 282 282 283 283 283 283 284 284 284 285 285 286 286 287 287 287 288 288 288 289 289 289 289 289 289 289 289 290 290 290 290 291 291 291 291 291 292 292 292 292 293 293 294 294 294 295 295 296 296 296 296 296 297 297 297 297 298 298
277 277 277 277 277 277 278 278 277 277 277 277 276 276 276 276 276 277 278 278 279 280 280 280 281 281 281 282 282 282 282 283 283 283 284 284 285 285 286 286 287 287 287 288 288 288 288 289 289 289 289 289 289 290 290 290 290 291 291 291 291 291 292 292 292 293 293 293 294 294 294 295 295 296 296 296 296 296 296 296 296 297 297 297 297
276 276 276 276 276 276 276 276 276 276 276 275 275 275 275 275 275 275 276 276 277 277 278 278 279 279 279 280 280 281 281 282 282 282 283 284 284 284 285 286 286 286 287 287 288 288 288 288 288 288 288 289 289 289 290 290 290 291 291 291 292 292 292 293 293 293 293 293 294 294 295 295 295 295 295 295 295 295 295 295 295 295 296 296 296
276 276 276 275 275 275 275 275 275 275 275 275 275 275 275 275 275 275 275 275 275 276 276 276 277 277 278 278 279 279 280 280 281 281 282 283 283 284 284 285 285 286 286 287 287 287 287 287 287 287 287 288 289 289 290 290 291 291 291 291 291 292 292 292 293 293 293 294 294 294 295 295 295 295 295 295 295 294 294 294 294 295 295 296 296
273 273 273 273 273 273 273 273 273 274 274 274 274 274 274 274 274 274 274 274 275 275 275 276 276 277 277 277 278 278 279 280 280 281 281 282 282 283 284 284 285 286 286 287 287 287 286 286 286 287 287 288 289 289 290 290 290 290 290 291 291 292 292 292 292 293 293 293 294 294 294 294 295 295 294 294 293 293 293 294 294 295 296 296 297
271 271 271 271 271 271 271 272 272 272 273 273 274 274 274 274 275 275 275 275 275 276 276 276 277 277 278 278 278 279 279 280 280 281 281 282 282 283 284 284 285 286 286 287 286 286 286 286 287 287 288 288 288 289 289 289 290 290 291 291 291 292 292 292 292 292 292 293 293 294 294 294 294 293 293 292 292 293 293 294 295 295 296 296 297
270 271 271 271 271 271 272 272 273 273 274 274 275 275 276 276 277 277 278 278 278 278 279 279 279 279 280 280 280 280 281 281 282 282 283 283 283 284 285 285 286 286 286 286 286 286 286 287 287 288 288 288 288 288 288 288 289 289 289 290 290 291 290 290 291 291 292 292 293 293 293 293 293 293 292 293 293 294 294 295 295 296 296 296 297
273 273 274 275 275 276 276 277 277 278 278 279 279 280 280 280 281 281 282 282 282 282 282 282 282 282 282 282 283 283 283 283 283 284 284 284 285 285 285 285 286 286 286 286 286 286 286 287 287 288 288 288 288 288 288 288 288 288 289 290 290 290 290 290 291 291 292 292 293 293 294 294 294 294 294 294 294 295 295 295 296 296 296 297 298
279 279 280 280 281 281 282 282 282 283 283 284 284 284 284 284 284 284 284 284 284 284 284 284 284 284 284 284 284 284 284 284 284 284 284 285 285 285 285 285 285 285 285 285 285 285 286 287 287 288 288 289 289 290 290 290 290 291 291 292 291 291 292 292 293 293 294 294 295 295 294 294 294 294 294 294 295 295 295 295 296 296 297 298 299
283 284 284 284 285 285 285 285 285 286 285 285 286 285 285 285 285 285 284 284 284 284 284 284 284 284 284 284 284 284 284 284 284 284 284 284 285 284 285 285 285 284 284 284 284 285 285 286 286 286 287 287 288 288 289 290 291 292 292 292 292 293 294 294 295 295 295 295 294 294 293 293 293 294 294 294 295 295 295 296 296 297 298 299 300
285 286 286 286 286 286 286 286 286 285 285 285 285 284 284 284 284 284 284 284 283 283 283 283 283 283 283 283 284 284 284 284 283 284 284 284 284 284 284 284 284 284 284 283 283 283 284 284 285 285 285 285 286 287 288 289 291 291 292 292 293 293 294 294 294 294 293 293 292 292 292 292 293 294 294 294 295 295 296 297 298 299 300 300 301
285 286 286 286 286 285 285 285 284 284 284 283 283 283 283 283 283 283 283 283 283 283 283 283 283 283 283 283 283 283 283 283 283 283 283 283 283 283 284 284 284 284 283 283 283 283 284 284 284 284 285 285 286 287 288 289 290 290 291 292 293 293 293 293 293 293 292 292 291 291 292 293 293 294 294 295 296 297 298 299 300 300 300 301 301
285 285 284 284 284 284 283 283 283 283 283 282 282 282 282 282 282 282 282 282 282 282 282 282 282 282 282 282 282 282 282 282 283 283 283 283 282 282 283 283 283 284 283 283 283 283 283 284 284 284 285 285 286 287 288 288 289 290 291 292 292 292 292 292 292 292 292 292 292 293 293 294 295 295 296 296 297 298 299 300 300 300 300 301 301
284 284 283 283 283 282 282 282 282 282 282 282 282 282 282 282 282 282 282 282 282 282 282 282 282 282 282 282 282 282 281 282 282 282 282 282 282 282 282 282 282 282 282 282 282 282 283 283 284 284 285 285 286 287 288 289 289 290 291 291 291 291 291 291 292 292 293 293 294 294 295 295 295 296 296 297 298 298 299 299 299 300 300 300 300
284 283 283 282 282 282 282 282 282 282 282 282 282 282 282 282 282 282 281 281 281 281 281 281 281 281 281 281 281 281 280 280 280 280 280 281 281 282 282 282 281 281 281 281 281 282 282 283 283 284 285 286 286 287 288 288 289 290 290 290 290 290 290 291 292 293 293 294 294 295 295 295 295 296 296 297 297 298 298 299 299 299 300 300 300
283 283 283 283 283 283 283 283 283 283 283 283 283 283 283 282 282 282 281 281 280 280 280 280 280 280 280 280 280 280 280 280 279 280 280 280 281 282 281 281 281 280 280 280 281 281 282 283 283 284 285 285 286 287 287 288 288 289 289 289 289 290 291 292 293 293 294 294 294 294 294 294 295 295 296 296 297 298 298 299 299 299 299 299 300
283 283 283 283 283 283 283 283 283 283 283 283 283 283 282 282 282 282 281 281 280 280 280 280 280 280 279 279 279 279 279 279 279 279 280 281 282 281 281 280 280 280 280 280 281 282 282 283 284 284 285 285 286 287 287 288 288 289 289 290 291 291 292 292 293 293 293 293 293 294 294 294 295 296 296 297 297 298 299 299 299 299 299 299 300
282 282 282 282 282 282 282 282 282 282 282 282 282 282 282 282 281 281 281 281 280 280 280 280 280 279 279 279 279 279 279 280 280 280 281 281 281 281 280 280 280 280 280 281 281 282 283 284 284 285 285 286 287 287 288 288 288 289 290 290 291 291 291 291 292 292 292 293 293 294 294 295 295 296 297 297 298 298 298 298 298 299 299 299 300
282 282 282 281 281 281 281 281 281 281 281 281 281 281 281 281 281 281 280 280 280 280 280 280 280 279 279 279 279 280 280 280 280 280 280 280 280 280 280 280 280 280 281 281 282 282 283 283 284 285 285 286 286 287 287 287 288 289 289 290 290 290 290 290 291 291 292 293 294 294 295 295 296 296 297 297 298 298 298 298 298 299 299 299 300
282 282 282 282 282 282 282 282 282 282 282 282 282 282 282 282 281 281 281 281 281 281 281 280 280 279 279 279 279 279 279 279 279 279 279 279 279 279 280 280 281 281 282 282 282 282 283 283 283 284 284 285 285 285 286 287 287 288 288 288 289 289 289 290 291 292 292 293 294 294 295 295 296 296 296 297 297 297 297 298 298 298 299 299 300
282 282 282 282 282 282 282 282 282 282 282 282 282 282 282 282 282 282 282 282 282 282 282 281 281 280 279 279 279 279 278 278 278 278 279 279 279 280 280 281 281 282 282 282 282 282 282 283 283 283 284 284 284 285 286 287 287 288 288 288 289 289 290 291 291 292 293 293 293 294 294 295 295 295 296 296 297 297 298 298 298 298 299 300 301
281 282 282 282 282 282 282 282 282 282 282 282 282 282 282 282 282 282 282 282 282 283 282 282 282 281 280 279 278 278 277 278 278 279 280 280 281 281 281 281 281 282 282 282 282 283 282 283 283 283 284 284 285 286 287 287 288 288 288 289 290 290 291 291 292 292 292 293 293 294 294 294 295 295 296 296 297 298 298 298 298 299 300 301 302
281 281 281 281 281 281 282 282 282 282 282 282 281 281 281 281 281 281 281 282 282 282 282 282 281 281 280 279 279 278 278 278 278 279 280 280 280 280 281 281 281 282 282 282 282 282 282 282 283 283 284 285 286 286 287 287 287 288 288 289 290 290 291 291 291 292 292 293 293 293 294 294 295 295 296 297 298 298 298 298 299 300 301 303 304
280 280 281 281 281 281 281 281 281 281 281 281 281 281 281 281 281 281 281 281 281 281 281 281 281 280 279 279 278 278 278 279 279 279 279 280 280 281 281 281 281 281 281 281 281 281 282 282 283 284 284 285 286 286 286 286 287 287 288 289 289 289 290 290 291 292 292 292 292 293 294 294 295 296 297 297 298 298 299 299 300 302 303 304 305
279 279 280 280 280 280 280 281 281 281 281 281 280 280 280 280 280 281 281 280 280 280 280 280 280 279 279 279 278 278 278 278 278 279 280 280 280 280 280 280 281 281 281 281 281 282 282 283 283 284 285 285 285 285 285 286 286 287 287 288 289 289 290 291 291 291 292 292 293 294 294 295 296 297 297 298 298 299 300 301 302 303 305 305 305
279 279 279 279 279 279 279 279 279 279 279 279 279 279 279 279 279 279 279 279 279 279 279 279 279 279 279 279 278 278 278 278 278 279 279 279 279 279 280 280 280 281 281 281 281 282 282 283 284 284 284 285 285 285 286 286 287 287 288 288 289 290 290 291 291 292 292 293 294 295 295 296 297 297 298 298 299 300 301 302 303 304 305 305 305
279 279 279 279 279 279 278 278 278 279 279 278 278 278 278 277 277 277 277 277 277 278 278 278 278 278 278 278 278 278 278 278 278 278 278 278 278 279 279 280 280 281 281 281 281 282 283 283 284 284 284 284 285 285 286 286 287 288 288 289 289 290 290 291 292 292 293 294 295 296 296 297 297 297 298 299 300 301 302 303 304 304 304 304 305
279 279 279 279 279 279 278 278 278 278 278 278 278 278 277 277 276 276 275 275 275 276 276 276 276 277 277 277 277 277 278 278 278 277 277 277 278 278 279 279 280 280 280 281 281 282 283 283 283 284 284 284 284 285 285 286 287 287 288 289 289 290 291 291 292 293 294 295 296 296 296 297 297 298 299 300 301 302 303 303 303 304 304 304 304
278 278 278 278 278 278 278 278 278 278 278 277 277 277 277 276 276 276 275 275 275 275 275 275 276 276 276 276 276 276 277 277 277 277 277 277 277 278 278 279 279 279 280 281 281 282 282 282 283 283 283 284 284 285 285 286 287 288 288 289 290 290 291 292 293 294 294 295 296 296 296 296 297 298 300 301 302 303 303 303 303 304 304 304 304
278 277 277 277 277 276 276 276 276 276 276 276 276 276 276 276 276 276 276 275 275 275 275 275 276 276 276 276 276 276 276 276 276 276 276 277 277 278 278 279 279 279 280 280 281 282 282 283 283 283 284 284 284 285 286 286 287 288 289 289 289 290 291 292 293 294 294 295 295 295 296 297 298 299 301 302 302 302 302 303 303 304 304 304 304
277 277 276 276 276 275 275 275 275 275 275 275 275 275 275 275 275 275 275 275 275 275 275 275 275 275 276 275 275 275 275 275 276 276 276 277 277 278 278 278 279 279 279 280 280 281 282 283 283 284 284 284 285 285 286 287 287 288 288 289 289 290 291 292 293 293 294 294 294 295 296 297 299 300 301 301 301 301 302 303 303 303 303 304 304
277 276 276 276 276 275 275 275 275 275 275 275 275 275 275 274 274 274 274 274 274 274 274 275 275 275 275 275 275 275 275 275 276 276 276 277 277 277 277 277 278 278 279 280 280 281 281 282 283 283 284 284 285 285 286 286 286 287 288 289 290 291 291 292 292 292 293 293 294 295 297 298 299 300 300 300 301 302 302 303 303 303 303 304 304
Height
10684 10681 10679 10677 10675 10673 10671 10669 10667 10666 10664 10662 10659 10656 10654 10653 10650 10648 10644 10641 10639 10637 10635 10633 10631 10629 10626 10623 10620 10618 10616 10614 10611 10608 10603 10599 10595 10592 10590 10588 10586 10583 10580 10576 10572 10568 10566 10562 10558 10553 10548 10544 10540 10536 10531 10526 10522 10519 10515 10511 10507 10502 10498 10495 10494 10492 10488 10482 10477 10474 10469 10463 10458 10452 10447 10441 10435 10430 10424 10419 10414 10409 10403 10397 10390
10674 10672 10670 10668 10667 10664 10662 10661 10659 10658 10656 10653 10651 10648 10647 10645 10642 10639 10635 10631 10629 10627 10625 10623 10621 10619 10616 10613 10610 10608 10606 10603 10600 10598 10594 10589 10585 10582 10579 10576 10574 10571 10568 10565 10560 10556 10554 10551 10547 10542 10537 10534 10530 10525 10521 10516 10512 10509 10504 10500 10498 10493 10489 10486 10483 10480 10476 10471 10466 10462 10457 10452 10447 10442 10436 10430 10425 10419 10414 10409 10404 10398 10392 10386 10379
10664 10663 10661 10659 10657 10656 10654 10651 10650 10649 10646 10644 10642 10640 10638 10635 10632 10629 10625 10621 10619 10617 10616 10614 10611 10609 10606 10603 10600 10598 10595 10593 10590 10587 10584 10580 10577 10573 10569 10566 10562 10559 10556 10552 10548 10545 10542 10539 10535 10531 10527 10523 10520 10515 10511 10507 10503 10499 10494 10490 10487 10483 10480 10476 10472 10468 10464 10460 10455 10451 10446 10440 10436 10431 10425 10420 10414 10409 10403 10398 10393 10387 10381 10375 10369
10655 10653 10652 10650 10648 10647 10644 10641 10640 10639 10636 10634 10632 10630 10628 10625 10621 10618 10614 10611 10609 10608 10606 10604 10601 10599 10595 10592 10590 10588 10585 10583 10580 10577 10574 10571 10568 10564 10559 10556 10552 10548 10544 10540 10537 10533 10530 10527 10523 10519 10515 10512 10508 10504 10500 10496 10492 10488 10484 10480 10476 10473 10470 10466 10462 10457 10453 10449 10444 10439 10434 10429 10424 10419 10413 10408 10403 10398 10393 10388 10382 10376 10369 10363 10356
10647 10644 10642 10640 10638 10635 10633 10630 10628 10627 10624 10623 10621 10619 10618 10615 10611 10607 10604 10601 10599 10597 10595 10593 10591 10588 10585 10582 10579 10577 10574 10572 10569 10565 10562 10560 10557 10553 10549 10545 10541 10536 10533 10529 10525 10522 10518 10515 10511 10507 10503 10500 10496 10492 10488 10485 10481 10477 10473 10469 10465 10462 10459 10456 10451 10446 10442 10438 10433 10428 10423 10418 10412 10407 10402 10397 10392 10386 10381 10376 10370 10364 10357 10350 10343
10637 10633 10631 10629 10627 10624 10621 10619 10617 10616 10614 10613 10611 10610 10608 10606 10602 10597 10594 10591 10588 10586 10584 10582 10580 10578 10574 10571 10567 10564 10562 10559 10556 10552 10549 10546 10544 10541 10537 10533 10529 10525 10521 10517 10514 10511 10507 10503 10500 10496 10492 10489 10486 10482 10478 10474 10470 10467 10463 10459 10455 10452 10448 10444 10440 10435 10431 10427 10422 10418 10413 10407 10402 10396 10391 10385 10380 10375 10370 10364 10357 10351 10344 10337 10330
10628 10625 10623 10621 10618 10615 10612 10611 10610 10608 10606 10604 10602 10601 10599 10597 10594 10588 10583 10581 10577 10574 10572 10570 10569 10567 10563 10559 10555 10552 10549 10546 10542 10539 10536 10533 10531 10528 10524 10520 10517 10513 10509 10506 10502 10498 10495 10492 10488 10484 10481 10478 10475 10471 10467 10464 10460 10456 10453 10449 10445 10441 10437 10433 10429 10424 10420 10415 10410 10405 10400 10394 10389 10384 10379 10374 10369 10364 10358 10353 10346 10339 10332 10325 10319
10621 10618 10616 10614 10611 10608 10605 10604 10602 10600 10597 10595 10592 10590 10588 10587 10584 10579 10574 10570 10566 10562 10560 10559 10557 10555 10551 10547 10543 10539 10536 10532 10528 10526 10523 10521 10519 10516 10512 10508 10505 10501 10498 10494 10490 10487 10483 10480 10477 10473 10470 10467 10464 10460 10457 10453 10450 10447 10443 10439 10435 10431 10427 10423 10418 10413 10409 10404 10399 10394 10388 10382 10377 10372 10367 10362 10357 10352 10347 10341 10335 10329 10322 10315 10308
10613 10610 10608 10605 10601 10599 10597 10595 10593 10591 10588 10584 10581 10579 10577 10576 10575 10571 10565 10559 10555 10552 10550 10548 10546 10542 10539 10536 10532 10528 10523 10519 10516 10513 10511 10509 10506 10504 10500 10497 10494 10491 10488 10484 10480 10477 10474 10470 10467 10464 10461 10458 10454 10450 10447 10444 10441 10438 10434 10431 10427 10422 10417 10412 10408 10403 10398 10393 10388 10383 10377 10371 10366 10361 10356 10351 10346 10341 10335 10329 10323 10316 10309 10301 10294
10604 10601 10598 10595 10592 10590 10588 10585 10583 10581 10578 10574 10571 10569 10567 10565 10564 10561 10556 10551 10546 10543 10540 10538 10534 10531 10528 10525 10522 10518 10513 10508 10504 10501 10500 10497 10495 10492 10489 10486 10483 10481 10478 10474 10471 10467 10464 10461 10458 10454 10451 10448 10444 10441 10437 10434 10431 10427 10424 10421 10417 10412 10407 10402 10397 10392 10387 10382 10377 10371 10365 10360 10355 10349 10344 10339 10333 10327 10321 10314 10308 10301 10295 10287 10280
10594 10591 10588 10586 10583 10581 10578 10575 10573 10570 10567 10563 10561 10558 10556 10553 10551 10548 10545 10541 10537 10534 10532 10528 10524 10521 10518 10515 10512 10508 10504 10498 10494 10490 10488 10486 10483 10481 10478 10475 10473 10470 10467 10464 10461 10457 10454 10451 10447 10444 10441 10438 10434 10430 10427 10423 10420 10416 10412 10409 10405 10401 10396 10390 10385 10380 10375 10370 10365 10359 10353 10348 10342 10337 10331 10325 10318 10312 10307 10302 10297 10291 10284 10277 10270
10582 10579 10576 10574 10572 10570 10567 10565 10562 10558 10555 10552 10550 10547 10545 10542 10539 10536 10533 10530 10528 10525 10522 10518 10515 10511 10508 10506 10503 10499 10495 10489 10483 10479 10477 10475 10472 10470 10468 10465 10462 10459 10456 10453 10450 10447 10444 10440 10437 10433 10429 10426 10422 10419 10415 10412 10408 10405 10401 10396 10392 10388 10383 10378 10373 10367 10362 10357 10352 10346 10340 10335 10331 10325 10319 10313 10307 10301 10296 10291 10286 10280 10273 10267 10259
10568 10566 10564 10561 10559 10556 10554 10552 10550 10545 10542 10539 10537 10535 10532 10530 10526 10523 10521 10518 10516 10514 10511 10507 10504 10500 10497 10495 10492 10489 10485 10479 10473 10469 10467 10464 10462 10459 10457 10454 10451 10449 10445 10442 10439 10436 10433 10429 10426 10422 10418 10414 10411 10407 10404 10400 10397 10393 10389 10385 10380 10375 10371 10366 10360 10354 10349 10344 10338 10332 10327 10323 10319 10313 10308 10302 10296 10290 10285 10279 10273 10267 10260 10253 10246
10554 10552 10551 10548 10544 10542 10540 10539 10536 10532 10529 10526 10524 10522 10519 10516 10513 10510 10507 10505 10503 10500 10497 10494 10491 10488 10485 10483 10480 10478 10474 10468 10463 10459 10457 10454 10452 10449 10447 10444 10441 10437 10434 10431 10428 10424 10421 10417 10414 10410 10405 10402 10398 10394 10391 10388 10385 10381 10377 10372 10367 10363 10358 10353 10348 10342 10336 10331 10325 10319 10314 10309 10304 10299 10293 10287 10281 10276 10270 10264 10257 10251 10245 10239 10233
10540 10539 10537 10533 10529 10527 10525 10524 10521 10518 10515 10513 10511 10509 10505 10503 10501 10497 10495 10492 10489 10486 10483 10480 10477 10475 10472 10470 10468 10466 10461 10456 10452 10449 10445 10443 10441 10438 10436 10433 10430 10426 10423 10419 10416 10412 10408 10405 10401 10397 10393 10388 10385 10382 10378 10375 10371 10367 10362 10358 10353 10349 10344 10339 10334 10329 10324 10319 10313 10307 10301 10295 10289 10284 10278 10272 10266 10261 10255 10249 10243 10237 10232 10226 10220
10527 10525 10522 10518 10514 10511 10509 10508 10506 10503 10500 10498 10496 10494 10491 10489 10487 10484 10482 10480 10477 10474 10470 10467 10465 10462 10459 10457 10455 10453 10449 10445 10441 10438 10434 10431 10429 10427 10424 10421 10418 10414 10411 10406 10402 10399 10395 10391 10387 10383 10379 10375 10371 10368 10365 10361 10357 10353 10347 10343 10338 10334 10329 10324 10319 10314 10310 10305 10300 10294 10288 10282 10276 10271 10265 10259 10254 10248 10242 10236 10230 10224 10219 10213 10207
10513 10510 10507 10503 10500 10497 10494 10493 10491 10489 10486 10484 10482 10479 10476 10474 10472 10469 10468 10466 10463 10460 10457 10455 10452 10450 10447 10444 10442 10440 10437 10433 10429 10426 10423 10419 10417 10415 10413 10409 10406 10402 10398 10393 10389 10385 10381 10377 10373 10369 10365 10361 10357 10353 10350 10348 10343 10338 10333 10328 10324 10319 10314 10309 10304 10300 10296 10291 10286 10280 10275 10269 10264 10258 10253 10247 10241 10235 10229 10223 10217 10211 10206 10199 10193
10498 10496 10493 10489 10486 10483 10480 10479 10477 10475 10472 10470 10467 10465 10463 10460 10457 10454 10453 10451 10449 10446 10443 10442 10439 10436 10434 10431 10429 10427 10424 10420 10416 10414 10410 10407 10405 10403 10400 10396 10393 10389 10385 10380 10376 10371 10367 10363 10359 10355 10351 10347 10342 10338 10336 10334 10329 10323 10318 10314 10310 10305 10300 10295 10291 10286 10282 10277 10272 10267 10262 10256 10251 10246 10240 10234 10228 10221 10215 10209 10203 10198 10192 10186 10180
10482 10481 10479 10475 10472 10469 10466 10465 10464 10462 10459 10456 10454 10451 10449 10446 10443 10441 10439 10437 10435 10433 10430 10428 10426 10423 10420 10418 10415 10413 10411 10407 10403 10401 10398 10394 10391 10390 10386 10382 10379 10375 10370 10366 10362 10357 10353 10349 10344 10341 10336 10331 10327 10324 10322 10318 10313 10309 10305 10301 10296 10291 10287 10282 10278 10273 10268 10263 10258 10254 10249 10243 10238 10233 10227 10220 10214 10207 10201 10195 10190 10184 10179 10173 10167
10467 10465 10463 10460 10457 10454 10451 10450 10449 10447 10445 10443 10441 10438 10436 10433 10431 10428 10426 10423 10421 10419 10417 10414 10412 10409 10406 10404 10402 10399 10397 10393 10389 10387 10384 10380 10377 10375 10372 10368 10364 10360 10355 10351 10348 10344 10340 10335 10329 10325 10321 10316 10313 10311 10308 10303 10297 10294 10291 10286 10281 10277 10273 10268 10264 10259 10254 10249 10244 10239 10234 10229 10224 10218 10212 10206 10200 10193 10187 10182 10176 10171 10166 10160 10154
10453 10452 10449 10446 10444 10441 10438 10436 10435 10433 10431 10429 10428 10426 10424 10421 10419 10417 10414 10411 10409 10407 10404 10401 10399 10396 10393 10390 10388 10385 10382 10379 10375 10372 10369 10365 10362 10359 10356 10352 10348 10344 10340 10336 10333 10329 10325 10320 10314 10309 10305 10301 10298 10296 10292 10287 10283 10279 10275 10270 10266 10262 10257 10253 10249 10244 10239 10234 10229 10224 10219 10214 10209 10204 10198 10192 10186 10180 10174 10169 10164 10158 10153 10147 10141
10439 10438 10436 10433 10431 10428 10426 10423 10421 10419 10417 10416 10415 10413 10411 10408 10406 10404 10402 10399 10397 10394 10391 10388 10385 10382 10379 10377 10374 10371 10367 10363 10360 10356 10354 10350 10346 10343 10341 10337 10332 10328 10325 10321 10318 10314 10309 10303 10299 10294 10290 10286 10283 10280 10277 10273 10269 10264 10260 10255 10251 10246 10242 10238 10234 10229 10224 10219 10215 10210 10205 10200 10196 10190 10185 10180 10173 10167 10162 10156 10151 10145 10139 10133 10127
10425 10424 10422 10420 10417 10415 10413 10410 10407 10404 10403 10401 10400 10399 10396 10394 10392 10390 10387 10385 10383 10380 10377 10374 10371 10368 10366 10363 10359 10356 10352 10348 10345 10341 10338 10334 10330 10327 10325 10322 10317 10312 10310 10306 10302 10297 10291 10286 10282 10279 10275 10272 10268 10265 10261 10258 10254 10249 10245 10241 10236 10232 10228 10224 10219 10214 10209 10205 10201 10196 10192 10187 10182 10177 10172 10167 10161 10155 10150 10144 10139 10133 10127 10120 10113
10412 10411 10408 10406 10404 10401 10399 10396 10393 10390 10388 10386 10385 10384 10381 10379 10377 10375 10372 10369 10367 10364 10361 10357 10355 10352 10349 10346 10343 10339 10335 10332 10329 10325 10321 10318 10314 10311 10309 10306 10302 10297 10294 10290 10284 10278 10273 10269 10266 10264 10261 10258 10254 10251 10247 10243 10239 10236 10232 10227 10223 10219 10215 10211 10206 10201 10196 10192 10188 10183 10179 10174 10169 10165 10159 10154 10148 10143 10137 10132 10126 10120 10114 10107 10101
10398 10396 10394 10392 10390 10387 10385 10382 10378 10376 10374 10372 10370 10368 10365 10363 10360 10358 10355 10352 10349 10346 10343 10340 10337 10334 10331 10329 10325 10322 10318 10315 10312 10308 10304 10300 10298 10295 10293 10290 10287 10283 10278 10273 10266 10260 10255 10253 10251 10249 10245 10242 10240 10236 10232 10228 10225 10221 10217 10212 10210 10207 10202 10197 10193 10189 10184 10180 10175 10171 10166 10161 10157 10152 10147 10141 10136 10130 10125 10119 10113 10107 10100 10093 10087
10384 10381 10379 10376 10373 10371 10369 10367 10363 10361 10358 10356 10353 10351 10348 10345 10342 10340 10337 10333 10330 10327 10324 10321 10318 10315 10312 10309 10306 10304 10300 10297 10294 10289 10285 10282 10280 10279 10276 10274 10271 10268 10263 10256 10250 10244 10240 10237 10235 10233 10229 10226 10224 10221 10217 10214 10212 10208 10204 10201 10199 10195 10190 10185 10181 10177 10172 10168 10163 10158 10153 10148 10143 10138 10133 10128 10123 10117 10111 10105 10099 10093 10086 10080 10074
10367 10366 10362 10359 10356 10353 10350 10349 10346 10344 10340 10338 10335 10333 10330 10327 10324 10322 10318 10314 10311 10309 10305 10302 10299 10296 10292 10289 10287 10285 10281 10278 10275 10271 10267 10265 10264 10261 10259 10257 10255 10252 10247 10240 10233 10229 10226 10223 10220 10216 10212 10209 10207 10203 10202 10200 10197 10193 10191 10189 10186 10181 10177 10173 10169 10164 10160 10155 10150 10144 10139 10134 10129 10124 10119 10114 10109 10103 10097 10091 10085 10079 10073 10067 10061
10348 10347 10345 10341 10338 10335 10331 10330 10329 10326 10323 10320 10317 10314 10312 10309 10306 10304 10301 10297 10294 10291 10288 10285 10282 10278 10274 10271 10269 10266 10262 10259 10256 10253 10250 10249 10247 10244 10242 10242 10240 10237 10232 10225 10217 10213 10212 10210 10206 10201 10197 10192 10188 10184 10183 10182 10179 10177 10175 10173 10169 10165 10162 10158 10154 10149 10145 10140 10135 10129 10124 10119 10114 10110 10105 10100 10095 10089 10083 10077 10072 10066 10060 10054 10047
10329 10328 10325 10322 10320 10317 10313 10311 10310 10308 10305 10303 10299 10297 10294 10291 10289 10287 10283 10279 10276 10273 10270 10268 10264 10260 10257 10255 10252 10248 10245 10241 10238 10236 10235 10233 10230 10228 10226 10226 10224 10221 10217 10211 10204 10200 10198 10196 10193 10190 10186 10181 10176 10172 10169 10166 10164 10162 10160 10156 10153 10150 10146 10143 10139 10135 10130 10126 10121 10116 10111 10106 10102 10097 10091 10086 10081 10075 10070 10064 10058 10053 10047 10040 10034
10312 10310 10307 10303 10301 10299 10296 10294 10291 10289 10286 10284 10282 10279 10276 10273 10271 10269 10266 10261 10258 10255 10253 10251 10247 10243 10241 10238 10235 10232 10228 10224 10221 10220 10219 10217 10214 10212 10211 10209 10207 10204 10201 10196 10190 10187 10185 10182 10179 10176 10173 10169 10165 10161 10157 10154 10151 10148 10145 10141 10138 10136 10132 10129 10126 10122 10117 10113 10109 10104 10099 10094 10089 10084 10078 10073 10067 10061 10056 10050 10045 10039 10033 10027 10021
10295 10294 10290 10285 10283 10280 10278 10276 10274 10270 10267 10265 10263 10261 10259 10256 10253 10251 10248 10245 10241 10238 10236 10234 10230 10227 10224 10221 10219 10216 10212 10208 10205 10203 10202 10200 10198 10196 10194 10192 10190 10188 10185 10181 10176 10172 10170 10167 10164 10162 10159 10155 10152 10149 10145 10142 10138 10135 10132 10128 10125 10122 10118 10115 10112 10108 10104 10100 10096 10091 10086 10081 10076 10071 10065 10059 10053 10047 10042 10037 10031 10025 10020 10014 10008
10276 10276 10273 10268 10265 10262 10259 10257 10255 10252 10249 10246 10243 10241 10240 10238 10236 10233 10230 10228 10225 10222 10219 10216 10213 10210 10207 10204 10202 10200 10196 10192 10189 10187 10185 10182 10181 10180 10178 10176 10174 10171 10168 10165 10161 10158 10155 10152 10150 10147 10144 10141 10138 10136 10133 10130 10126 10123 10120 10116 10112 10108 10104 10101 10098 10094 10090 10086 10081 10077 10072 10067 10062 10057 10051 10045 10040 10034 10029 10023 10017 10012 10007 10001 9995
10255 10255 10253 10249 10246 10243 10241 10239 10236 10234 10231 10228 10225 10223 10221 10220 10218 10215 10212 10210 10208 10205 10202 10199 10196 10194 10191 10188 10185 10182 10180 10176 10173 10171 10168 10165 10165 10165 10164 10163 10160 10157 10152 10148 10145 10143 10141 10139 10136 10133 10130 10127 10125 10122 10119 10116 10113 10110 10107 10104 10100 10096 10092 10088 10084 10080 10076 10071 10067 10062 10057 10052 10048 10043 10037 10032 10027 10021 10015 10010 10004 9999 9994 9988 9982
10234 10233 10232 10228 10226 10224 10221 10219 10217 10215 10213 10210 10208 10206 10203 10201 10200 10198 10195 10192 10190 10188 10186 10183 10180 10178 10176 10173 10169 10166 10163 10161 10158 10155 10152 10150 10150 10150 10149 10147 10145 10142 10138 10133 10130 10129 10128 10126 10123 10120 10116 10113 10111 10108 10106 10103 10101 10098 10095 10091 10087 10083 10079 10075 10071 10066 10062 10057 10053 10048 10044 10039 10034 10029 10024 10019 10014 10008 10003 9997 9992 9986 9981 9975 9969
10215 10214 10212 10208 10206 10205 10203 10200 10197 10195 10193 10191 10189 10187 10185 10183 10181 10179 10176 10174 10173 10172 10171 10168 10166 10163 10161 10157 10153 10150 10148 10146 10143 10140 10137 10136 10137 10137 10135 10131 10128 10126 10122 10119 10116 10115 10114 10112 10110 10107 10104 10101 10098 10095 10093 10090 10088 10085 10082 10078 10074 10070 10065 10061 10057 10053 10048 10044 10040 10036 10031 10026 10021 10016 10012 10006 10001 9996 9990 9984 9978 9973 9967 9961 9956
10196 10195 10194 10191 10188 10187 10186 10183 10180 10178 10176 10174 10172 10170 10167 10165 10164 10161 10158 10155 10155 10156 10155 10153 10150 10148 10146 10142 10138 10135 10133 10131 10128 10125 10123 10123 10122 10122 10119 10116 10113 10110 10108 10106 10103 10102 10100 10098 10096 10093 10090 10087 10085 10082 10079 10076 10074 10071 10067 10064 10060 10056 10051 10047 10043 10039 10035 10031 10027 10022 10018 10013 10008 10003 9998 9993 9988 9983 9977 9971 9965 9960 9954 9949 9943
10178 10177 10176 10173 10171 10170 10169 10167 10164 10162 10160 10159 10156 10154 10151 10149 10147 10144 10141 10138 10138 10139 10139 10137 10135 10133 10130 10127 10123 10120 10118 10116 10114 10112 10110 10109 10108 10105 10102 10100 10098 10096 10094 10093 10091 10089 10087 10085 10082 10080 10077 10074 10071 10068 10065 10062 10059 10056 10053 10050 10046 10042 10038 10034 10030 10026 10022 10018 10014 10009 10004 9999 9994 9989 9984 9980 9975 9970 9964 9958 9952 9947 9942 9936 9930
10159 10159 10157 10155 10153 10152 10152 10150 10148 10146 10144 10143 10140 10138 10136 10133 10130 10128 10125 10123 10122 10123 10123 10123 10121 10118 10115 10112 10110 10107 10104 10102 10100 10097 10095 10094 10093 10090 10087 10085 10084 10082 10081 10081 10079 10077 10074 10072 10069 10066 10064 10061 10058 10054 10051 10049 10046 10044 10041 10037 10034 10030 10026 10022 10018 10014 10009 10005 10000 9995 9990 9986 9981 9976 9971 9967 9962 9957 9951 9946 9940 9935 9929 9923 9918
10142 10141 10139 10136 10135 10135 10134 10133 10132 10130 10128 10126 10124 10122 10120 10117 10114 10111 10109 10108 10107 10107 10107 10107 10106 10104 10101 10098 10097 10094 10090 10087 10085 10083 10081 10080 10079 10076 10073 10071 10070 10069 10068 10067 10066 10064 10061 10059 10056 10054 10051 10048 10045 10042 10039 10036 10034 10031 10028 10024 10021 10017 10013 10009 10005 10001 9996 9992 9987 9982 9977 9973 9969 9964 9959 9954 9950 9945 9939 9934 9928 9922 9917 9911 9905
10125 10124 10122 10119 10118 10117 10116 10116 10115 10113 10112 10111 10109 10107 10104 10102 10099 10096 10094 10093 10091 10090 10090 10091 10091 10089 10086 10084 10082 10079 10075 10071 10069 10067 10067 10067 10065 10063 10061 10059 10057 10056 10054 10053 10051 10050 10047 10045 10042 10040 10038 10035 10032 10029 10026 10023 10020 10017 10014 10010 10006 10003 9999 9996 9992 9988 9983 9979 9974 9969 9965 9961 9956 9951 9946 9941 9937 9932 9927 9921 9916 9910 9904 9899 9893
10110 10109 10107 10104 10101 10100 10100 10099 10097 10097 10096 10095 10094 10091 10089 10086 10084 10082 10081 10079 10077 10075 10075 10075 10075 10073 10071 10069 10068 10065 10061 10057 10054 10053 10053 10053 10051 10049 10048 10046 10044 10043 10041 10038 10037 10035 10032 10030 10028 10026 10023 10021 10018 10015 10012 10009 10006 10002 9999 9995 9992 9989 9985 9982 9978 9975 9970 9966 9961 9957 9952 9948 9943 9937 9932 9928 9924 9919 9914 9909 9903 9897 9892 9886 9879
10095 10094 10092 10089 10086 10084 10084 10082 10080 10080 10080 10079 10078 10075 10073 10072 10070 10068 10067 10065 10064 10062 10060 10060 10059 10058 10057 10054 10052 10050 10047 10044 10042 10040 10040 10039 10037 10035 10034 10032 10031 10029 10027 10024 10022 10020 10018 10016 10014 10012 10010 10007 10004 10001 9998 9995 9992 9988 9985 9982 9979 9976 9972 9969 9965 9962 9957 9953 9948 9944 9939 9935 9929 9924 9919 9915 9911 9906 9901 9895 9890 9885 9879 9873 9866
10080 10079 10077 10074 10071 10069 10067 10066 10065 10064 10063 10063 10061 10059 10058 10056 10054 10052 10052 10051 10050 10048 10046 10045 10044 10044 10042 10040 10038 10036 10034 10032 10030 10028 10027 10025 10024 10022 10020 10019 10017 10015 10013 10010 10008 10006 10004 10002 10001 9999 9996 9994 9991 9988 9985 9982 9979 9976 9973 9969 9966 9963 9960 9956 9953 9949 9944 9940 9935 9931 9926 9921 9916 9910 9906 9902 9898 9893 9887 9881 9876 9871 9866 9859 9853
10065 10064 10062 10060 10057 10055 10052 10051 10049 10048 10048 10048 10046 10045 10043 10041 10039 10037 10036 10035 10034 10033 10032 10031 10030 10029 10028 10027 10025 10023 10021 10019 10017 10016 10015 10013 10010 10008 10007 10005 10003 10001 9999 9997 9995 9993 9991 9989 9987 9985 9983 9980 9978 9975 9972 9969 9966 9964 9960 9957 9954 9950 9947 9943 9940 9935 9931 9926 9922 9917 9912 9907 9902 9897 9893 9889 9884 9879 9874 9868 9863 9858 9852 9847 9841
10048 10048 10047 10045 10043 10041 10039 10036 10034 10033 10033 10033 10032 10031 10030 10028 10026 10024 10022 10019 10018 10018 10018 10017 10016 10014 10013 10013 10011 10009 10007 10006 10005 10004 10002 9999 9997 9995 9994 9992 9990 9988 9986 9984 9982 9980 9978 9976 9974 9972 9970 9967 9964 9961 9959 9956 9953 9950 9947 9944 9940 9937 9934 9930 9926 9921 9917 9912 9907 9903 9898 9893 9888 9884 9880 9876 9871 9866 9861 9855 9850 9845 9839 9834 9828
10031 10031 10030 10029 10027 10025 10023 10021 10019 10018 10018 10017 10016 10016 10015 10014 10013 10011 10009 10006 10004 10003 10003 10003 10001 10000 10000 9999 9997 9996 9994 9993 9993 9991 9989 9986 9983 9982 9981 9979 9978 9975 9973 9970 9968 9967 9965 9964 9961 9959 9956 9953 9951 9948 9945 9942 9939 9936 9934 9931 9927 9924 9920 9916 9911 9907 9902 9898 9893 9888 9884 9879 9875 9870 9866 9862 9858 9853 9847 9842 9837 9832 9827 9821 9816
10016 10015 10013 10012 10011 10009 10007 10005 10004 10003 10002 10001 10000 9999 9999 9998 9997 9996 9995 9993 9991 9990 9989 9988 9987 9986 9986 9986 9984 9983 9982 9980 9979 9977 9975 9973 9971 9970 9968 9967 9965 9963 9960 9957 9955 9954 9952 9951 9948 9946 9943 9940 9938 9935 9932 9929 9926 9923 9920 9917 9914 9910 9906 9902 9897 9893 9889 9884 9880 9875 9871 9866 9861 9857 9853 9849 9844 9840 9834 9829 9824 9819 9814 9809 9804
10001 10000 9999 9997 9995 9993 9991 9989 9988 9987 9986 9985 9984 9983 9982 9981 9980 9980 9979 9978 9976 9975 9974 9973 9972 9972 9972 9972 9971 9970 9968 9966 9964 9963 9961 9960 9959 9957 9955 9954 9952 9950 9947 9944 9942 9940 9939 9937 9935 9933 9930 9927 9925 9922 9919 9916 9913 9910 9907 9903 9899 9895 9891 9888 9884 9880 9876 9872 9867 9862 9857 9853 9848 9844 9840 9836 9832 9827 9822 9816 9811 9806 9801 9796 9792
9984 9984 9984 9982 9980 9978 9976 9974 9973 9973 9971 9970 9969 9968 9967 9966 9966 9965 9964 9963 9962 9960 9959 9958 9958 9957 9957 9957 9956 9955 9954 9952 9951 9949 9948 9947 9945 9944 9942 9940 9939 9937 9934 9931 9928 9926 9924 9922 9920 9918 9916 9913 9911 9908 9905 9903 9900 9896 9893 9889 9885 9881 9878 9874 9871 9867 9863 9859 9854 9849 9844 9840 9836 9832 9828 9823 9819 9814 9809 9804 9799 9794 9789 9784 9780
9967 9967 9967 9966 9964 9962 9960 9959 9958 9958 9956 9955 9954 9954 9953 9952 9952 9951 9950 9949 9947 9946 9944 9943 9943 9942 9942 9942 9941 9940 9939 9938 9937 9936 9934 9933 9932 9930 9928 9926 9924 9922 9920 9918 9915 9913 9910 9908 9906 9904 9901 9899 9897 9894 9892 9889 9886 9882 9879 9875 9872 9869 9865 9862 9859 9855 9850 9846 9841 9836 9832 9828 9824 9820 9816 9811 9807 9802 9797 9792 9787 9782 9777 9773 9768
9950 9950 9950 9949 9948 9946 9944 9944 9943 9942 9941 9941 9940 9940 9939 9938 9937 9936 9936 9935 9933 9932 9930 9929 9928 9928 9927 9927 9926 9925 9925 9924 9923 9922 9920 9919 9917 9916 9914 9912 9910 9909 9907 9905 9902 9900 9897 9894 9892 9890 9888 9886 9884 9881 9878 9875 9872 9868 9865 9862 9860 9857 9853 9849 9846 9842 9838 9833 9828 9823 9819 9816 9812 9808 9803 9799 9794 9790 9785 9780 9775 9770 9765 9761 9757